Flag for Canada Weather past 2 weeks in Oakville, Ontario, Canada

Now
15 °F

Cold.


Feels Like: 9 °F
Forecast: 9 / 28 °F
Wind: 3 mph from West

Location: Burlington Piers

Current Time: Mar 1, 2015 at 7:54:22 AM

Latest Report: Mar 1, 2015 at 7:00 AM


Visibility: N/A

Pressure: 30.48 "Hg

Humidity: 72%

Dew point: 7 °F

Location of OakvilleLocation

Historic Weather in Oakville — Graph

°F

Oakville temperature yesterday

Maximum temperature yesterday: 22 °F (at 3:00 PM)
Minimum temperature yesterday: 4 °F (at 7:00 AM)
Average temperature yesterday: 12 °F

Past Weeks' High & Low Weather Summary

 TemperatureHumidityPressure
High26 °F (Feb 22, 3:00 PM)92% (Feb 25, 3:00 AM)30.81 "Hg (Feb 25, 3:00 AM)
Low-10 °F (Feb 15, 8:00 AM)24% (Feb 17, 1:00 PM)29.57 "Hg (Feb 14, 11:00 AM)
Average8 °F63%30.20 "Hg
* Reported Feb 14 6:00 AM — Mar 1 6:00 AM, Oakville, Weather by CustomWeather, © 2015

Note: Actual official high and low records may vary slightly from our data, if they occured in-between our weather recording intervals... More about our weather records

Advertising

Oakville weather history for previous 24 hours

 ConditionsComfort  
Time TempWeatherWind HumidityBarometerVisibility
6:00 AM
Sun, Mar 1
14 °FCold.5 mph67%30.50 "HgN/A
5:00 AM15 °FCold.3 mph66%30.51 "HgN/A
4:00 AM13 °FCold.3 mph67%30.53 "HgN/A
3:00 AM13 °FCold.3 mph69%30.57 "HgN/A
2:00 AM11 °FCold.3 mph73%30.60 "HgN/A
1:00 AM12 °FCold.2 mph64%30.60 "HgN/A
12:00 AM11 °FCold.2 mph66%30.63 "HgN/A
11:00 PM
Sat, Feb 28
11 °FCold.2 mph70%30.66 "HgN/A
10:00 PM15 °FCold.3 mph56%30.67 "HgN/A
9:00 PM15 °FCold.2 mph58%30.69 "HgN/A
8:00 PM15 °FCold.2 mph60%30.71 "HgN/A
7:00 PM17 °FCold.7 mph56%30.71 "HgN/A
6:00 PM18 °FCold.8 mph56%30.71 "HgN/A
5:00 PM21 °FCold.8 mph51%30.72 "HgN/A
4:00 PM22 °FCold.8 mph44%30.73 "HgN/A
3:00 PM22 °FCold.7 mph48%30.75 "HgN/A
2:00 PM22 °FCold.7 mph55%30.76 "HgN/A
1:00 PM20 °FCold.7 mph49%30.77 "HgN/A
12:00 PM18 °FCold.7 mph54%30.80 "HgN/A
11:00 AM15 °FCold.5 mph62%30.81 "HgN/A
10:00 AM11 °FCold.6 mph65%30.81 "HgN/A
9:00 AM7 °FFrigid.5 mph70%30.81 "HgN/A
8:00 AM4 °FFrigid.6 mph72%30.79 "HgN/A
7:00 AM4 °FFrigid.6 mph76%30.78 "HgN/A
Weather by CustomWeather, © 2015

See weather overviewHow to use our weather pages